Weather History for KHQZ - May, 2014

Change the Weather History Date:

Friday, May 16, 2014

  Actual Average (KDFW) Record (KDFW)
Temperature  
Mean Temperature 66 °F 74 °F  
Max Temperature 81 °F 84 °F 94 °F (2003)
Min Temperature 53 °F 64 °F 46 °F (1945)
Degree Days  
Heating Degree Days 0 0  
Month to date heating degree days 6  
Since 1 July heating degree days 2282  
Cooling Degree Days 2 9  
Month to date cooling degree days 116  
Year to date cooling degree days 254  
Growing Degree Days 16 (Base 50)    
Moisture  
Dew Point 49 °F    
Average Humidity 59    
Maximum Humidity 88    
Minimum Humidity 36    
Precipitation  
Precipitation 0.00 in 0.16 in 4.63 in (1949)
Month to date precipitation 2.57  
Year to date precipitation 13.92  
Sea Level Pressure  
Sea Level Pressure 30.04 in    
Wind  
Wind Speed 8 mph (ESE)    
Max Wind Speed 16 mph    
Max Gust Speed 21 mph    
Visibility 10 miles    
Events      
T = Trace of Precipitation, MM = Missing Value Source: NWS Daily Summary

Daily Weather History Graph

Daily Weather History Graph

Search for Another Location

Airport or City:

Trip Planner

Search our weather history database for the weather conditions in past years. The results will help you decide how hot, cold, wet, or windy it might be!

Date:

Astronomy

May. 16, 2014 Rise Set
Actual Time 6:26 AM CDT 8:18 PM CDT
Civil Twilight 5:59 AM CDT 8:46 PM CDT
Nautical Twilight 5:26 AM CDT 9:19 PM CDT
Astronomical Twilight 4:51 AM CDT 9:54 PM CDT
Moon 10:26 PM CDT (5/16) 8:09 AM CDT (5/16)
Length of Visible Light 14h 46m
Length of Day
13h 52m
Waning Gibbous, 95% of the Moon is Illuminated
May 16
Waning Gibbous
May 21
Last Quarter
May 28
New
Jun 5
First Quarter
Jun 12
Full

Hourly Weather History & Observations

Time (CDT) Temp. Heat Index Dew Point Humidity Pressure Visibility Wind Dir Wind Speed Gust Speed Precip Events Conditions
12:15 AM 63.3 °F - 43.7 °F 49% 30.13 in 10.0 mi ENE 8.1 mph - N/A   Clear
12:35 AM 63.1 °F - 44.1 °F 50% 30.13 in 10.0 mi ENE 8.1 mph - N/A   Clear
12:55 AM 62.2 °F - 45.1 °F 54% 30.14 in 10.0 mi ENE 4.6 mph - N/A   Clear
1:15 AM 61.0 °F - 46.0 °F 58% 30.13 in 10.0 mi East 6.9 mph - N/A   Clear
1:35 AM 60.8 °F - 45.7 °F 57% 30.12 in 10.0 mi East 6.9 mph - N/A   Clear
1:55 AM 59.9 °F - 46.2 °F 61% 30.11 in 10.0 mi East 6.9 mph - N/A   Clear
2:15 AM 59.9 °F - 45.7 °F 59% 30.10 in 10.0 mi East 9.2 mph - N/A   Clear
2:35 AM 60.3 °F - 45.9 °F 59% 30.07 in 10.0 mi East 13.8 mph - N/A   Clear
2:55 AM 60.8 °F - 46.0 °F 58% 30.08 in 10.0 mi East 8.1 mph - N/A   Clear
3:15 AM 60.8 °F - 46.2 °F 59% 30.09 in 10.0 mi East 4.6 mph - N/A   Clear
3:35 AM 59.7 °F - 46.9 °F 63% 30.10 in 10.0 mi North 3.5 mph - N/A   Scattered Clouds
3:55 AM 58.5 °F - 48.6 °F 70% 30.09 in 10.0 mi NE 3.5 mph - N/A   Scattered Clouds
4:15 AM 58.5 °F - 48.2 °F 69% 30.09 in 10.0 mi Calm Calm - N/A   Scattered Clouds
4:35 AM 57.2 °F - 48.4 °F 72% 30.07 in 10.0 mi East 5.8 mph - N/A   Clear
4:55 AM 56.5 °F - 48.2 °F 74% 30.08 in 10.0 mi East 4.6 mph - N/A   Clear
5:15 AM 55.4 °F - 48.4 °F 77% 30.07 in 10.0 mi ENE 4.6 mph - N/A   Clear
5:35 AM 55.0 °F - 48.6 °F 79% 30.08 in 10.0 mi NE 4.6 mph - N/A   Clear
6:47 AM 53.6 °F - 50.0 °F 88% 30.10 in 10.0 mi North - - N/A   Clear
7:50 AM 55.4 °F - 51.8 °F 88% 30.11 in 10.0 mi North - - N/A   Clear
8:55 AM 60.8 °F - 53.6 °F 77% 30.12 in 10.0 mi North - - N/A   Clear
9:55 AM 64.4 °F - 53.6 °F 68% 30.12 in 10.0 mi North - - N/A   Clear
11:55 AM 71.6 °F - 51.8 °F 50% 30.09 in 10.0 mi North - - N/A   Clear
12:55 PM 73.4 °F - 51.8 °F 47% 30.07 in 10.0 mi North - - N/A   Clear
1:55 PM 77.0 °F - 48.2 °F 36% 30.05 in 10.0 mi South 3.5 mph - N/A   Clear
4:50 PM 80.6 °F - 51.8 °F 37% 29.96 in 10.0 mi SSE 16.1 mph 20.7 mph N/A   Clear
5:50 PM 80.6 °F 80.3 °F 53.6 °F 39% 29.95 in 10.0 mi SE 13.8 mph - N/A   Clear
6:50 PM 78.8 °F - 57.2 °F 47% 29.93 in 10.0 mi SE 10.4 mph - N/A   Clear
7:50 PM 75.2 °F - 55.4 °F 50% 29.92 in 10.0 mi SE 10.4 mph - N/A   Clear
9:55 PM 67.6 °F - 51.6 °F 56% 29.91 in 10.0 mi SSE 9.2 mph - N/A   Clear
10:15 PM 68.2 °F - 50.9 °F 54% 29.91 in 10.0 mi SSE 9.2 mph - N/A   Clear
10:35 PM 68.0 °F - 50.2 °F 53% 29.91 in 10.0 mi SSE 12.7 mph - N/A   Clear
10:55 PM 68.0 °F - 49.6 °F 52% 29.90 in 10.0 mi SSE 11.5 mph - N/A   Clear
11:15 PM 66.9 °F - 50.0 °F 54% 29.90 in 10.0 mi SSE 10.4 mph - N/A   Clear
11:35 PM 67.1 °F - 48.0 °F 50% 29.90 in 10.0 mi SSE 12.7 mph - N/A   Clear
11:55 PM 67.3 °F - 46.8 °F 48% 29.89 in 10.0 mi SSE 12.7 mph 17.3 mph N/A   Clear